Wetterdaten: Samstag, 14.07.2012
Datum Zeit Temp. Auen Feucht Auen Luftdruck Regen Richtung Richtung Windben
14.07.2012 00:00 14,3 C 93 % 1008,7 hPa 0,0 mm W 270 1,6 km/h (1 Bft)
14.07.2012 00:05 14,2 C 92 % 1008,6 hPa 0,0 mm W-NW 302 0,0 km/h (0 Bft)
14.07.2012 00:10 14,1 C 92 % 1008,3 hPa 0,0 mm W-NW 302 0,0 km/h (0 Bft)
14.07.2012 00:15 13,9 C 93 % 1008,3 hPa 0,0 mm W-NW 302 0,0 km/h (0 Bft)
14.07.2012 00:20 13,8 C 93 % 1008,2 hPa 0,0 mm W-NW 302 0,0 km/h (0 Bft)
14.07.2012 00:25 13,8 C 93 % 1008,6 hPa 0,0 mm W-NW 302 3,2 km/h (1 Bft)
14.07.2012 00:30 13,8 C 93 % 1008,3 hPa 0,0 mm W-NW 302 1,6 km/h (1 Bft)
14.07.2012 00:35 13,8 C 93 % 1008,5 hPa 0,0 mm W 267 3,2 km/h (1 Bft)
14.07.2012 00:40 13,8 C 93 % 1008,6 hPa 0,0 mm W 274 4,8 km/h (1 Bft)
14.07.2012 00:45 13,9 C 93 % 1008,6 hPa 0,0 mm W 265 4,8 km/h (1 Bft)
14.07.2012 00:50 13,9 C 93 % 1008,4 hPa 0,0 mm W-SW 253 4,8 km/h (1 Bft)
14.07.2012 00:55 13,9 C 93 % 1008,5 hPa 0,0 mm W-SW 253 0,0 km/h (0 Bft)
14.07.2012 01:00 13,9 C 93 % 1008,5 hPa 0,0 mm W-SW 253 0,0 km/h (0 Bft)
14.07.2012 01:05 13,9 C 93 % 1008,7 hPa 0,0 mm W 273 6,4 km/h (2 Bft)
14.07.2012 01:10 14,0 C 93 % 1008,8 hPa 0,0 mm W 263 6,4 km/h (2 Bft)
14.07.2012 01:15 14,1 C 93 % 1008,9 hPa 0,0 mm W 271 4,8 km/h (1 Bft)
14.07.2012 01:20 14,1 C 92 % 1008,7 hPa 0,2 mm W 271 1,6 km/h (1 Bft)
14.07.2012 01:25 14,1 C 92 % 1008,6 hPa 0,0 mm W 273 8,0 km/h (2 Bft)
14.07.2012 01:30 14,1 C 92 % 1008,6 hPa 0,0 mm W-NW 295 4,8 km/h (1 Bft)
14.07.2012 01:35 14,1 C 92 % 1008,5 hPa 0,0 mm W-NW 295 3,2 km/h (1 Bft)
14.07.2012 01:40 14,1 C 92 % 1008,3 hPa 0,0 mm W-NW 295 1,6 km/h (1 Bft)
14.07.2012 01:45 14,0 C 92 % 1008,6 hPa 0,0 mm W-NW 295 3,2 km/h (1 Bft)
14.07.2012 01:50 13,9 C 93 % 1008,5 hPa 0,0 mm W-NW 295 1,6 km/h (1 Bft)
14.07.2012 01:55 14,0 C 93 % 1008,6 hPa 0,0 mm W 274 4,8 km/h (1 Bft)
14.07.2012 02:00 14,0 C 93 % 1008,7 hPa 0,0 mm W 269 3,2 km/h (1 Bft)
14.07.2012 02:05 13,9 C 93 % 1008,6 hPa 0,0 mm W 278 4,8 km/h (1 Bft)
14.07.2012 02:10 14,0 C 93 % 1008,8 hPa 0,0 mm W 270 6,4 km/h (2 Bft)
14.07.2012 02:15 14,0 C 93 % 1008,8 hPa 0,0 mm W-SW 256 6,4 km/h (2 Bft)
14.07.2012 02:20 14,0 C 93 % 1008,6 hPa 0,0 mm W 262 4,8 km/h (1 Bft)
14.07.2012 02:25 13,9 C 93 % 1008,2 hPa 0,0 mm W-SW 257 1,6 km/h (1 Bft)
14.07.2012 02:30 13,9 C 93 % 1008,3 hPa 0,0 mm W-SW 258 3,2 km/h (1 Bft)
14.07.2012 02:35 13,9 C 93 % 1008,5 hPa 0,0 mm W-SW 258 3,2 km/h (1 Bft)
14.07.2012 02:40 13,9 C 93 % 1008,4 hPa 0,0 mm W-SW 258 3,2 km/h (1 Bft)
14.07.2012 02:45 13,8 C 93 % 1008,5 hPa 0,0 mm W-SW 258 0,0 km/h (0 Bft)
14.07.2012 02:50 13,7 C 93 % 1008,6 hPa 0,0 mm W-SW 258 1,6 km/h (1 Bft)
14.07.2012 02:55 13,6 C 93 % 1008,8 hPa 0,0 mm W 260 4,8 km/h (1 Bft)
14.07.2012 03:00 13,7 C 94 % 1008,7 hPa 0,0 mm W 260 3,2 km/h (1 Bft)
14.07.2012 03:05 13,6 C 94 % 1008,5 hPa 0,0 mm W 260 0,0 km/h (0 Bft)
14.07.2012 03:10 13,6 C 94 % 1008,3 hPa 0,0 mm SW 217 0,0 km/h (0 Bft)
14.07.2012 03:15 13,6 C 94 % 1008,4 hPa 0,0 mm SW 217 0,0 km/h (0 Bft)
14.07.2012 03:20 13,6 C 94 % 1008,7 hPa 0,0 mm SW 217 1,6 km/h (1 Bft)
14.07.2012 03:25 13,6 C 94 % 1008,5 hPa 0,0 mm W-SW 248 4,8 km/h (1 Bft)
14.07.2012 03:30 13,6 C 94 % 1008,4 hPa 0,0 mm W 271 4,8 km/h (1 Bft)
14.07.2012 03:35 13,6 C 94 % 1008,1 hPa 0,0 mm O 79 4,8 km/h (1 Bft)
14.07.2012 03:40 13,6 C 94 % 1008,3 hPa 0,0 mm S-SO 159 4,8 km/h (1 Bft)
14.07.2012 03:45 13,6 C 94 % 1008,4 hPa 0,0 mm W-SW 253 4,8 km/h (1 Bft)
14.07.2012 03:50 13,6 C 94 % 1008,5 hPa 0,0 mm W-SW 254 6,4 km/h (2 Bft)
14.07.2012 03:55 13,6 C 95 % 1008,4 hPa 0,0 mm S 171 4,8 km/h (1 Bft)
14.07.2012 04:00 13,6 C 95 % 1008,6 hPa 0,0 mm W 276 4,8 km/h (1 Bft)
14.07.2012 04:05 13,6 C 95 % 1008,4 hPa 0,0 mm W 278 1,6 km/h (1 Bft)
14.07.2012 04:10 13,6 C 95 % 1008,2 hPa 0,0 mm SO 144 4,8 km/h (1 Bft)
14.07.2012 04:15 13,5 C 95 % 1008,2 hPa 0,0 mm SO 140 6,4 km/h (2 Bft)
14.07.2012 04:20 13,5 C 94 % 1008,2 hPa 0,0 mm SO 140 1,6 km/h (1 Bft)
14.07.2012 04:25 13,6 C 95 % 1008,2 hPa 0,0 mm O-SO 108 0,0 km/h (0 Bft)
14.07.2012 04:30 13,6 C 95 % 1008,1 hPa 0,0 mm O-SO 108 0,0 km/h (0 Bft)
14.07.2012 04:35 13,6 C 95 % 1008,1 hPa 0,0 mm O-SO 108 0,0 km/h (0 Bft)
14.07.2012 04:40 13,6 C 95 % 1007,9 hPa 0,0 mm N-NO 23 0,0 km/h (0 Bft)
14.07.2012 04:45 13,6 C 94 % 1007,8 hPa 0,0 mm O-NO 72 0,0 km/h (0 Bft)
14.07.2012 04:50 13,5 C 94 % 1007,8 hPa 0,0 mm O-NO 72 0,0 km/h (0 Bft)
14.07.2012 04:55 13,5 C 94 % 1007,8 hPa 0,0 mm O-NO 72 0,0 km/h (0 Bft)
14.07.2012 05:00 13,4 C 94 % 1007,7 hPa 0,0 mm O-NO 72 0,0 km/h (0 Bft)
14.07.2012 05:05 13,4 C 94 % 1007,7 hPa 0,0 mm O-NO 72 0,0 km/h (0 Bft)
14.07.2012 05:10 13,4 C 94 % 1007,8 hPa 0,0 mm O-NO 72 0,0 km/h (0 Bft)
14.07.2012 05:15 13,4 C 94 % 1007,7 hPa 0,0 mm O-NO 72 0,0 km/h (0 Bft)
14.07.2012 05:20 13,5 C 94 % 1007,7 hPa 0,0 mm O-NO 72 0,0 km/h (0 Bft)
14.07.2012 05:25 13,6 C 95 % 1007,6 hPa 0,0 mm O-NO 72 0,0 km/h (0 Bft)
14.07.2012 05:30 13,6 C 95 % 1007,6 hPa 0,0 mm O-NO 73 0,0 km/h (0 Bft)
14.07.2012 05:35 13,6 C 94 % 1007,5 hPa 0,0 mm O-NO 73 0,0 km/h (0 Bft)
14.07.2012 05:40 13,3 C 94 % 1007,6 hPa 0,0 mm O-NO 73 0,0 km/h (0 Bft)
14.07.2012 05:45 13,3 C 94 % 1007,5 hPa 0,0 mm O-NO 73 0,0 km/h (0 Bft)
14.07.2012 05:50 13,4 C 95 % 1007,5 hPa 0,0 mm O-NO 73 0,0 km/h (0 Bft)
14.07.2012 05:55 13,4 C 94 % 1007,5 hPa 0,0 mm O-NO 73 0,0 km/h (0 Bft)
14.07.2012 06:00 13,6 C 95 % 1007,5 hPa 0,0 mm O-NO 73 0,0 km/h (0 Bft)
14.07.2012 06:05 13,6 C 95 % 1007,6 hPa 0,0 mm O-NO 73 0,0 km/h (0 Bft)
14.07.2012 06:10 13,5 C 94 % 1007,6 hPa 0,0 mm O-NO 73 0,0 km/h (0 Bft)
14.07.2012 06:15 13,6 C 95 % 1007,6 hPa 0,0 mm O-NO 73 0,0 km/h (0 Bft)
14.07.2012 06:20 13,6 C 95 % 1007,6 hPa 0,0 mm O-NO 73 0,0 km/h (0 Bft)
14.07.2012 06:25 13,7 C 95 % 1007,6 hPa 0,0 mm O-NO 73 0,0 km/h (0 Bft)
14.07.2012 06:30 14,1 C 95 % 1007,5 hPa 0,0 mm N-NO 31 1,6 km/h (1 Bft)
14.07.2012 06:35 14,3 C 94 % 1007,4 hPa 0,0 mm N 5 4,8 km/h (1 Bft)
14.07.2012 06:40 14,8 C 94 % 1007,6 hPa 0,0 mm W-SW 256 3,2 km/h (1 Bft)
14.07.2012 06:45 15,1 C 93 % 1007,6 hPa 0,0 mm W-SW 256 1,6 km/h (1 Bft)
14.07.2012 06:50 15,3 C 92 % 1007,7 hPa 0,0 mm W-SW 256 1,6 km/h (1 Bft)
14.07.2012 06:55 15,2 C 91 % 1007,7 hPa 0,0 mm W-SW 256 1,6 km/h (1 Bft)
14.07.2012 07:00 15,5 C 91 % 1007,6 hPa 0,0 mm W-SW 256 1,6 km/h (1 Bft)
14.07.2012 07:05 16,0 C 90 % 1007,6 hPa 0,0 mm W-SW 256 1,6 km/h (1 Bft)
14.07.2012 07:10 16,3 C 89 % 1007,7 hPa 0,0 mm W-SW 256 1,6 km/h (1 Bft)
14.07.2012 07:15 16,4 C 87 % 1007,8 hPa 0,0 mm W-SW 256 1,6 km/h (1 Bft)
14.07.2012 07:20 16,2 C 89 % 1007,9 hPa 0,0 mm W-SW 256 3,2 km/h (1 Bft)
14.07.2012 07:25 16,0 C 88 % 1008,0 hPa 0,0 mm W-SW 256 3,2 km/h (1 Bft)
14.07.2012 07:30 15,9 C 88 % 1008,0 hPa 0,0 mm S 171 4,8 km/h (1 Bft)
14.07.2012 07:35 16,1 C 87 % 1008,0 hPa 0,0 mm S 171 0,0 km/h (0 Bft)
14.07.2012 07:40 15,9 C 87 % 1007,8 hPa 0,0 mm S 171 0,0 km/h (0 Bft)
14.07.2012 07:45 15,9 C 88 % 1007,7 hPa 0,0 mm S 171 0,0 km/h (0 Bft)
14.07.2012 07:50 16,3 C 87 % 1007,9 hPa 0,0 mm S 171 0,0 km/h (0 Bft)
14.07.2012 07:55 16,2 C 88 % 1007,9 hPa 0,0 mm S 171 1,6 km/h (1 Bft)
14.07.2012 08:00 16,2 C 88 % 1007,9 hPa 0,0 mm S 171 1,6 km/h (1 Bft)
14.07.2012 08:05 16,3 C 88 % 1007,9 hPa 0,0 mm S 171 3,2 km/h (1 Bft)
14.07.2012 08:10 16,4 C 86 % 1007,8 hPa 0,0 mm S 171 3,2 km/h (1 Bft)
14.07.2012 08:15 16,7 C 84 % 1007,9 hPa 0,0 mm S 171 3,2 km/h (1 Bft)
14.07.2012 08:20 16,8 C 84 % 1008,0 hPa 0,0 mm S 177 4,8 km/h (1 Bft)
14.07.2012 08:25 16,8 C 84 % 1008,1 hPa 0,0 mm S 177 0,0 km/h (0 Bft)
14.07.2012 08:30 16,7 C 85 % 1008,1 hPa 0,0 mm S 177 0,0 km/h (0 Bft)
14.07.2012 08:35 16,6 C 87 % 1008,0 hPa 0,0 mm S 177 3,2 km/h (1 Bft)
14.07.2012 08:40 16,7 C 88 % 1008,1 hPa 0,0 mm S 177 1,6 km/h (1 Bft)
14.07.2012 08:45 16,6 C 88 % 1008,2 hPa 0,0 mm S 177 1,6 km/h (1 Bft)
14.07.2012 08:50 16,6 C 88 % 1008,4 hPa 0,0 mm S 177 1,6 km/h (1 Bft)
14.07.2012 08:55 16,7 C 89 % 1008,5 hPa 0,0 mm S 177 0,0 km/h (0 Bft)
14.07.2012 09:00 16,8 C 87 % 1008,7 hPa 0,0 mm S 177 0,0 km/h (0 Bft)
14.07.2012 09:05 16,8 C 86 % 1008,8 hPa 0,0 mm S-SW 205 3,2 km/h (1 Bft)
14.07.2012 09:10 16,8 C 87 % 1008,8 hPa 0,0 mm S-SW 205 0,0 km/h (0 Bft)
14.07.2012 09:15 16,6 C 89 % 1008,8 hPa 0,0 mm S-SW 205 3,2 km/h (1 Bft)
14.07.2012 09:20 16,4 C 89 % 1008,8 hPa 0,0 mm S-SO 157 4,8 km/h (1 Bft)
14.07.2012 09:25 16,3 C 88 % 1008,7 hPa 0,0 mm SO 134 4,8 km/h (1 Bft)
14.07.2012 09:30 16,4 C 90 % 1008,8 hPa 0,0 mm W 265 4,8 km/h (1 Bft)
14.07.2012 09:35 16,4 C 90 % 1008,8 hPa 0,0 mm N 355 1,6 km/h (1 Bft)
14.07.2012 09:40 16,5 C 89 % 1009,0 hPa 0,0 mm S 186 12,9 km/h (3 Bft)
14.07.2012 09:45 16,8 C 85 % 1009,0 hPa 0,0 mm W-NW 296 9,7 km/h (2 Bft)
14.07.2012 09:50 17,0 C 84 % 1009,1 hPa 0,0 mm W-NW 290 12,9 km/h (3 Bft)
14.07.2012 09:55 17,1 C 83 % 1009,0 hPa 0,0 mm W-SW 242 11,3 km/h (2 Bft)
14.07.2012 10:00 17,0 C 83 % 1009,1 hPa 0,0 mm W 278 6,4 km/h (2 Bft)
14.07.2012 10:05 16,9 C 84 % 1009,2 hPa 0,0 mm W 276 6,4 km/h (2 Bft)
14.07.2012 10:10 16,9 C 84 % 1009,2 hPa 0,0 mm W 276 1,6 km/h (1 Bft)
14.07.2012 10:15 16,8 C 85 % 1009,3 hPa 0,0 mm W 276 0,0 km/h (0 Bft)
14.07.2012 10:20 16,8 C 85 % 1009,4 hPa 0,0 mm W 276 0,0 km/h (0 Bft)
14.07.2012 10:25 16,9 C 85 % 1009,4 hPa 0,0 mm W 276 0,0 km/h (0 Bft)
14.07.2012 10:30 16,9 C 87 % 1009,3 hPa 0,0 mm W 276 0,0 km/h (0 Bft)
14.07.2012 10:35 16,7 C 87 % 1009,4 hPa 0,0 mm W 276 1,6 km/h (1 Bft)
14.07.2012 10:40 16,8 C 87 % 1009,5 hPa 0,0 mm W 276 0,0 km/h (0 Bft)
14.07.2012 10:45 16,8 C 87 % 1009,6 hPa 0,0 mm W 276 0,0 km/h (0 Bft)
14.07.2012 10:50 16,6 C 88 % 1009,7 hPa 0,0 mm W 276 0,0 km/h (0 Bft)
14.07.2012 10:55 16,4 C 88 % 1009,9 hPa 0,0 mm N 351 1,6 km/h (1 Bft)
14.07.2012 11:00 16,4 C 89 % 1009,8 hPa 0,0 mm N 351 0,0 km/h (0 Bft)
14.07.2012 11:05 16,4 C 89 % 1009,9 hPa 0,0 mm N 351 0,0 km/h (0 Bft)
14.07.2012 11:10 16,4 C 89 % 1009,9 hPa 0,0 mm N-NW 345 1,6 km/h (1 Bft)
14.07.2012 11:15 16,6 C 89 % 1010,0 hPa 0,0 mm N-NW 345 0,0 km/h (0 Bft)
14.07.2012 11:20 16,6 C 86 % 1010,2 hPa 0,0 mm W-NW 302 3,2 km/h (1 Bft)
14.07.2012 11:25 16,7 C 84 % 1010,2 hPa 0,0 mm W-NW 284 6,4 km/h (2 Bft)
14.07.2012 11:30 16,8 C 83 % 1010,3 hPa 0,0 mm W-SW 250 6,4 km/h (2 Bft)
14.07.2012 11:35 16,7 C 83 % 1010,4 hPa 0,0 mm SW 229 3,2 km/h (1 Bft)
14.07.2012 11:40 16,7 C 83 % 1010,4 hPa 0,0 mm SW 225 1,6 km/h (1 Bft)
14.07.2012 11:45 16,7 C 83 % 1010,5 hPa 0,0 mm W-SW 241 3,2 km/h (1 Bft)
14.07.2012 11:50 16,7 C 82 % 1010,6 hPa 0,0 mm W-SW 256 6,4 km/h (2 Bft)
14.07.2012 11:55 16,7 C 80 % 1010,6 hPa 0,0 mm W 270 8,0 km/h (2 Bft)
14.07.2012 12:00 16,7 C 78 % 1010,8 hPa 0,0 mm W 262 14,5 km/h (3 Bft)
14.07.2012 12:05 16,5 C 77 % 1010,9 hPa 0,0 mm W-SW 254 16,1 km/h (3 Bft)
14.07.2012 12:10 16,4 C 78 % 1011,1 hPa 0,2 mm W 271 12,9 km/h (3 Bft)
14.07.2012 12:15 16,3 C 80 % 1011,0 hPa 0,0 mm W 269 6,4 km/h (2 Bft)
14.07.2012 12:20 16,1 C 81 % 1011,1 hPa 0,0 mm W 270 16,1 km/h (3 Bft)
14.07.2012 12:25 15,8 C 84 % 1011,1 hPa 0,0 mm W 259 11,3 km/h (2 Bft)
14.07.2012 12:30 15,4 C 86 % 1011,2 hPa 0,4 mm W-SW 244 8,0 km/h (2 Bft)
14.07.2012 12:35 15,1 C 87 % 1011,3 hPa 0,2 mm W 266 6,4 km/h (2 Bft)
14.07.2012 12:40 14,9 C 89 % 1011,4 hPa 0,0 mm W 265 4,8 km/h (1 Bft)
14.07.2012 12:45 14,8 C 89 % 1011,5 hPa 0,2 mm W-NW 301 6,4 km/h (2 Bft)
14.07.2012 12:50 14,7 C 90 % 1011,6 hPa 0,2 mm W-SW 252 6,4 km/h (2 Bft)
14.07.2012 12:55 14,7 C 91 % 1011,5 hPa 0,2 mm W 279 6,4 km/h (2 Bft)
14.07.2012 13:00 14,8 C 92 % 1011,5 hPa 0,4 mm W-NW 290 4,8 km/h (1 Bft)
14.07.2012 13:05 14,9 C 92 % 1011,6 hPa 0,0 mm W 265 4,8 km/h (1 Bft)
14.07.2012 13:10 15,1 C 91 % 1011,5 hPa 0,2 mm W 262 6,4 km/h (2 Bft)
14.07.2012 13:15 15,1 C 91 % 1011,4 hPa 0,0 mm W 273 4,8 km/h (1 Bft)
14.07.2012 13:20 15,1 C 90 % 1011,3 hPa 0,0 mm N-NO 21 4,8 km/h (1 Bft)
14.07.2012 13:25 15,0 C 90 % 1011,3 hPa 0,0 mm N-NO 18 6,4 km/h (2 Bft)
14.07.2012 13:30 15,0 C 90 % 1011,4 hPa 0,0 mm N-NO 29 4,8 km/h (1 Bft)
14.07.2012 13:35 15,2 C 91 % 1011,5 hPa 0,0 mm N-NO 29 3,2 km/h (1 Bft)
14.07.2012 13:40 15,2 C 91 % 1011,5 hPa 0,0 mm N-NO 29 1,6 km/h (1 Bft)
14.07.2012 13:45 15,3 C 91 % 1011,8 hPa 0,2 mm O-SO 115 3,2 km/h (1 Bft)
14.07.2012 13:50 15,3 C 91 % 1011,9 hPa 0,0 mm O 94 4,8 km/h (1 Bft)
14.07.2012 13:55 15,1 C 92 % 1011,9 hPa 0,0 mm O-SO 109 4,8 km/h (1 Bft)
14.07.2012 14:00 15,1 C 92 % 1011,9 hPa 0,0 mm O 101 8,0 km/h (2 Bft)
14.07.2012 14:05 15,2 C 93 % 1012,1 hPa 0,0 mm O-SO 109 6,4 km/h (2 Bft)
14.07.2012 14:10 15,2 C 93 % 1012,2 hPa 0,0 mm O-SO 110 4,8 km/h (1 Bft)
14.07.2012 14:15 15,2 C 92 % 1012,5 hPa 0,0 mm O-NO 74 4,8 km/h (1 Bft)
14.07.2012 14:20 15,2 C 92 % 1012,5 hPa 0,0 mm O-NO 70 3,2 km/h (1 Bft)
14.07.2012 14:25 15,2 C 92 % 1012,3 hPa 0,0 mm NO 35 3,2 km/h (1 Bft)
14.07.2012 14:30 15,3 C 92 % 1012,4 hPa 0,0 mm O-NO 69 3,2 km/h (1 Bft)
14.07.2012 14:35 15,3 C 92 % 1012,4 hPa 0,0 mm SO 134 4,8 km/h (1 Bft)
14.07.2012 14:40 15,3 C 91 % 1012,6 hPa 0,0 mm SO 145 4,8 km/h (1 Bft)
14.07.2012 14:45 15,2 C 92 % 1012,8 hPa 0,0 mm O-SO 117 4,8 km/h (1 Bft)
14.07.2012 14:50 15,2 C 92 % 1012,7 hPa 0,2 mm S-SO 152 3,2 km/h (1 Bft)
14.07.2012 14:55 15,3 C 92 % 1012,8 hPa 0,0 mm O 84 1,6 km/h (1 Bft)
14.07.2012 15:00 15,6 C 91 % 1012,9 hPa 0,2 mm W 265 6,4 km/h (2 Bft)
14.07.2012 15:05 15,6 C 89 % 1012,8 hPa 0,0 mm W-NW 294 6,4 km/h (2 Bft)
14.07.2012 15:10 15,6 C 89 % 1012,8 hPa 0,0 mm W 260 8,0 km/h (2 Bft)
14.07.2012 15:15 15,6 C 88 % 1012,6 hPa 0,0 mm W-SW 254 9,7 km/h (2 Bft)
14.07.2012 15:20 15,6 C 88 % 1012,5 hPa 0,2 mm W 277 11,3 km/h (2 Bft)
14.07.2012 15:25 15,4 C 86 % 1012,6 hPa 0,0 mm NW 304 8,0 km/h (2 Bft)
14.07.2012 15:30 15,4 C 87 % 1012,6 hPa 0,0 mm N-NW 331 6,4 km/h (2 Bft)
14.07.2012 15:35 15,3 C 88 % 1012,6 hPa 0,0 mm W-NW 293 3,2 km/h (1 Bft)
14.07.2012 15:40 15,3 C 87 % 1012,7 hPa 0,0 mm W-NW 290 4,8 km/h (1 Bft)
14.07.2012 15:45 15,3 C 87 % 1012,7 hPa 0,0 mm NW 304 3,2 km/h (1 Bft)
14.07.2012 15:50 15,3 C 87 % 1012,8 hPa 0,0 mm W 269 3,2 km/h (1 Bft)
14.07.2012 15:55 15,4 C 86 % 1012,8 hPa 0,0 mm W-NW 302 6,4 km/h (2 Bft)
14.07.2012 16:00 15,6 C 88 % 1012,8 hPa 0,2 mm W-SW 248 6,4 km/h (2 Bft)
14.07.2012 16:05 15,7 C 91 % 1012,8 hPa 0,0 mm W 261 4,8 km/h (1 Bft)
14.07.2012 16:10 15,7 C 87 % 1012,6 hPa 0,0 mm N 11 6,4 km/h (2 Bft)
14.07.2012 16:15 15,7 C 88 % 1012,4 hPa 0,0 mm NW 325 3,2 km/h (1 Bft)
14.07.2012 16:20 15,8 C 87 % 1012,3 hPa 0,0 mm NW 306 3,2 km/h (1 Bft)
14.07.2012 16:25 16,3 C 87 % 1012,4 hPa 0,0 mm W-SW 244 4,8 km/h (1 Bft)
14.07.2012 16:30 16,2 C 84 % 1012,1 hPa 0,0 mm N 355 3,2 km/h (1 Bft)
14.07.2012 16:35 16,1 C 82 % 1012,0 hPa 0,0 mm N 5 4,8 km/h (1 Bft)
14.07.2012 16:40 16,1 C 84 % 1011,8 hPa 0,0 mm NO 34 4,8 km/h (1 Bft)
14.07.2012 16:45 16,1 C 85 % 1011,8 hPa 0,0 mm N-NO 25 4,8 km/h (1 Bft)
14.07.2012 16:50 16,1 C 82 % 1012,0 hPa 0,0 mm S-SO 165 8,0 km/h (2 Bft)
14.07.2012 16:55 16,1 C 81 % 1012,0 hPa 0,0 mm S 169 8,0 km/h (2 Bft)
14.07.2012 17:00 16,0 C 81 % 1012,0 hPa 0,0 mm SO 145 11,3 km/h (2 Bft)
14.07.2012 17:05 16,0 C 80 % 1011,8 hPa 0,0 mm O 93 8,0 km/h (2 Bft)
14.07.2012 17:10 15,9 C 81 % 1012,0 hPa 0,0 mm O-SO 111 8,0 km/h (2 Bft)
14.07.2012 17:15 15,9 C 79 % 1011,9 hPa 0,0 mm SO 140 8,0 km/h (2 Bft)
14.07.2012 17:20 15,9 C 79 % 1012,1 hPa 0,0 mm S-SO 151 9,7 km/h (2 Bft)
14.07.2012 17:25 16,0 C 81 % 1012,1 hPa 0,0 mm W 265 6,4 km/h (2 Bft)
14.07.2012 17:30 16,1 C 79 % 1011,8 hPa 0,0 mm S 184 8,0 km/h (2 Bft)
14.07.2012 17:35 16,2 C 80 % 1012,1 hPa 0,0 mm W 270 3,2 km/h (1 Bft)
14.07.2012 17:40 16,2 C 81 % 1012,1 hPa 0,0 mm W 270 3,2 km/h (1 Bft)
14.07.2012 17:45 16,2 C 81 % 1011,9 hPa 0,0 mm W-NW 298 4,8 km/h (1 Bft)
14.07.2012 17:50 16,1 C 84 % 1012,0 hPa 0,0 mm N-NO 16 6,4 km/h (2 Bft)
14.07.2012 17:55 15,7 C 86 % 1011,9 hPa 0,0 mm SW 229 4,8 km/h (1 Bft)
14.07.2012 18:00 15,6 C 87 % 1011,9 hPa 0,0 mm SW 229 1,6 km/h (1 Bft)
14.07.2012 18:05 15,5 C 88 % 1011,6 hPa 0,0 mm W 273 4,8 km/h (1 Bft)
14.07.2012 18:10 15,5 C 87 % 1011,8 hPa 0,0 mm W-SW 258 4,8 km/h (1 Bft)
14.07.2012 18:15 15,6 C 87 % 1011,8 hPa 0,0 mm W-SW 255 4,8 km/h (1 Bft)
14.07.2012 18:20 15,6 C 88 % 1012,0 hPa 0,0 mm W-SW 255 3,2 km/h (1 Bft)
14.07.2012 18:25 15,7 C 88 % 1011,8 hPa 0,0 mm W-SW 255 4,8 km/h (1 Bft)
14.07.2012 18:30 15,6 C 88 % 1011,8 hPa 0,0 mm W 261 1,6 km/h (1 Bft)
14.07.2012 18:35 15,4 C 89 % 1011,9 hPa 0,0 mm W 261 0,0 km/h (0 Bft)
14.07.2012 18:40 15,5 C 90 % 1011,7 hPa 0,0 mm N 5 3,2 km/h (1 Bft)
14.07.2012 18:45 15,6 C 88 % 1011,8 hPa 0,0 mm O-SO 111 3,2 km/h (1 Bft)
14.07.2012 18:50 16,0 C 88 % 1011,5 hPa 0,0 mm W-SW 251 3,2 km/h (1 Bft)
14.07.2012 18:55 16,4 C 85 % 1011,5 hPa 0,0 mm S 187 4,8 km/h (1 Bft)
14.07.2012 19:00 16,2 C 84 % 1011,6 hPa 0,0 mm NO 42 4,8 km/h (1 Bft)
14.07.2012 19:05 16,2 C 87 % 1011,5 hPa 0,0 mm W-SW 254 6,4 km/h (2 Bft)
14.07.2012 19:10 16,2 C 86 % 1011,6 hPa 0,0 mm W-SW 254 3,2 km/h (1 Bft)
14.07.2012 19:15 16,2 C 85 % 1011,6 hPa 0,0 mm W-SW 254 4,8 km/h (1 Bft)
14.07.2012 19:20 15,9 C 84 % 1011,6 hPa 0,0 mm W 265 4,8 km/h (1 Bft)
14.07.2012 19:25 15,9 C 84 % 1011,8 hPa 0,0 mm W 265 3,2 km/h (1 Bft)
14.07.2012 19:30 15,9 C 84 % 1011,8 hPa 0,0 mm W 265 1,6 km/h (1 Bft)
14.07.2012 19:35 15,9 C 87 % 1011,8 hPa 0,0 mm W-SW 252 4,8 km/h (1 Bft)
14.07.2012 19:40 15,8 C 88 % 1011,6 hPa 0,0 mm W 263 4,8 km/h (1 Bft)
14.07.2012 19:45 15,7 C 88 % 1011,3 hPa 0,0 mm W 261 4,8 km/h (1 Bft)
14.07.2012 19:50 15,5 C 88 % 1011,6 hPa 0,0 mm W 261 3,2 km/h (1 Bft)
14.07.2012 19:55 15,3 C 89 % 1011,6 hPa 0,0 mm W 261 1,6 km/h (1 Bft)
14.07.2012 20:00 15,1 C 89 % 1011,8 hPa 0,0 mm N 360 4,8 km/h (1 Bft)
14.07.2012 20:05 15,0 C 90 % 1012,0 hPa 0,0 mm W-SW 249 8,0 km/h (2 Bft)
14.07.2012 20:10 15,1 C 89 % 1011,9 hPa 0,0 mm W 261 6,4 km/h (2 Bft)
14.07.2012 20:15 15,1 C 89 % 1011,9 hPa 0,0 mm W-SW 248 6,4 km/h (2 Bft)
14.07.2012 20:20 15,1 C 89 % 1012,1 hPa 0,0 mm W 275 6,4 km/h (2 Bft)
14.07.2012 20:25 15,1 C 89 % 1012,1 hPa 0,0 mm W-NW 298 3,2 km/h (1 Bft)
14.07.2012 20:30 14,9 C 89 % 1012,0 hPa 0,0 mm W-NW 284 3,2 km/h (1 Bft)
14.07.2012 20:35 14,9 C 89 % 1012,0 hPa 0,0 mm W-SW 257 6,4 km/h (2 Bft)
14.07.2012 20:40 14,8 C 89 % 1011,9 hPa 0,2 mm W 267 8,0 km/h (2 Bft)
14.07.2012 20:45 14,8 C 88 % 1011,9 hPa 0,0 mm W-SW 255 8,0 km/h (2 Bft)
14.07.2012 20:50 14,8 C 88 % 1011,9 hPa 0,0 mm W-SW 255 3,2 km/h (1 Bft)
14.07.2012 20:55 14,6 C 89 % 1011,9 hPa 0,0 mm SO 126 3,2 km/h (1 Bft)
14.07.2012 21:00 14,4 C 90 % 1012,1 hPa 0,0 mm SO 126 1,6 km/h (1 Bft)
14.07.2012 21:05 14,3 C 91 % 1012,3 hPa 0,0 mm SO 126 0,0 km/h (0 Bft)
14.07.2012 21:10 14,2 C 91 % 1012,3 hPa 0,0 mm SO 126 0,0 km/h (0 Bft)
14.07.2012 21:15 14,1 C 92 % 1012,2 hPa 0,0 mm SO 126 1,6 km/h (1 Bft)
14.07.2012 21:20 14,0 C 92 % 1012,3 hPa 0,0 mm W-SW 254 3,2 km/h (1 Bft)
14.07.2012 21:25 13,9 C 93 % 1012,4 hPa 0,0 mm W-SW 254 0,0 km/h (0 Bft)
14.07.2012 21:30 13,8 C 93 % 1012,4 hPa 0,0 mm N 350 1,6 km/h (1 Bft)
14.07.2012 21:35 13,7 C 93 % 1012,3 hPa 0,0 mm N 350 0,0 km/h (0 Bft)
14.07.2012 21:40 13,7 C 93 % 1012,5 hPa 0,0 mm N 350 0,0 km/h (0 Bft)
14.07.2012 21:45 13,8 C 93 % 1012,3 hPa 0,0 mm N 350 0,0 km/h (0 Bft)
14.07.2012 21:50 13,8 C 93 % 1012,3 hPa 0,0 mm N 350 0,0 km/h (0 Bft)
14.07.2012 21:55 13,8 C 93 % 1012,1 hPa 0,0 mm N 5 3,2 km/h (1 Bft)
14.07.2012 22:00 13,7 C 93 % 1012,2 hPa 0,0 mm N 5 0,0 km/h (0 Bft)
14.07.2012 22:05 13,6 C 93 % 1012,2 hPa 0,0 mm N 5 0,0 km/h (0 Bft)
14.07.2012 22:10 13,7 C 94 % 1012,4 hPa 0,0 mm N 5 1,6 km/h (1 Bft)
14.07.2012 22:15 13,7 C 94 % 1012,3 hPa 0,0 mm N 5 0,0 km/h (0 Bft)
14.07.2012 22:20 13,8 C 94 % 1012,3 hPa 0,0 mm N 5 1,6 km/h (1 Bft)
14.07.2012 22:25 13,7 C 94 % 1012,4 hPa 0,0 mm W-NW 282 1,6 km/h (1 Bft)
14.07.2012 22:30 13,7 C 94 % 1012,6 hPa 0,0 mm W-SW 252 4,8 km/h (1 Bft)
14.07.2012 22:35 13,7 C 93 % 1012,7 hPa 0,0 mm W 263 4,8 km/h (1 Bft)
14.07.2012 22:40 13,7 C 93 % 1012,7 hPa 0,0 mm W-NW 282 3,2 km/h (1 Bft)
14.07.2012 22:45 13,7 C 93 % 1012,7 hPa 0,0 mm W-NW 282 1,6 km/h (1 Bft)
14.07.2012 22:50 13,7 C 93 % 1012,6 hPa 0,2 mm W-NW 282 0,0 km/h (0 Bft)
14.07.2012 22:55 13,8 C 93 % 1012,6 hPa 0,0 mm W-NW 283 0,0 km/h (0 Bft)
14.07.2012 23:00 13,7 C 93 % 1012,6 hPa 0,0 mm N 355 0,0 km/h (0 Bft)
14.07.2012 23:05 13,7 C 93 % 1012,5 hPa 0,0 mm N 355 0,0 km/h (0 Bft)
14.07.2012 23:10 13,7 C 93 % 1012,5 hPa 0,0 mm N 355 0,0 km/h (0 Bft)
14.07.2012 23:15 13,7 C 93 % 1012,5 hPa 0,0 mm NW 325 0,0 km/h (0 Bft)
14.07.2012 23:20 13,7 C 93 % 1012,4 hPa 0,0 mm NW 325 0,0 km/h (0 Bft)
14.07.2012 23:25 13,7 C 93 % 1012,5 hPa 0,0 mm NW 325 0,0 km/h (0 Bft)
14.07.2012 23:30 13,7 C 93 % 1012,7 hPa 0,0 mm NW 325 0,0 km/h (0 Bft)
14.07.2012 23:35 13,7 C 93 % 1012,7 hPa 0,0 mm NW 325 0,0 km/h (0 Bft)
14.07.2012 23:40 13,7 C 94 % 1012,8 hPa 0,0 mm NW 325 0,0 km/h (0 Bft)
14.07.2012 23:45 13,7 C 93 % 1012,9 hPa 0,2 mm NW 325 0,0 km/h (0 Bft)
14.07.2012 23:50 13,6 C 94 % 1012,9 hPa 0,0 mm NW 325 0,0 km/h (0 Bft)
14.07.2012 23:55 13,6 C 94 % 1013,0 hPa 0,0 mm NW 324 0,0 km/h (0 Bft)
_ Min-Zeit 05:05 12:05 06:35 - - - 00:05
Minimum _ 13,3 C 77 % 1007,4 hPa - - - 0,0 km/h (0 Bft)
_ Max-Zeit 09:55 03:55 23:55 12:30 - - 12:05
Maximum _ 17,1 C 95 % 1013,0 hPa 0,4 mm - - 16,1 km/h
W (3 Bft)
Durchschnitt _ 15,0 C 90 % 1010,3 hPa #3,8 mm W - 3,4 km/h (1 Bft)